Flag for U.S.A. Weather past 2 weeks in Macon, Georgia, U.S.A.

Now
86 °F

Broken clouds.


Feels Like: 92 °F
Forecast: 71 / 88 °F
Wind: 5 mph from Northeast

Location: Middle Georgia Regional Airport

Current Time: Sep 2, 2015 at 2:04:17 PM

Latest Report: Sep 2, 2015 at 12:53 PM


Visibility: 10 mi

Pressure: 30.06 "Hg

Humidity: 61%

Dew point: 71 °F

Location of MaconLocation

Historic Weather in Macon — Graph

°F

Macon temperature yesterday

Maximum temperature yesterday: 91 °F (at 4:53 PM)
Minimum temperature yesterday: 67 °F (at 4:53 AM)
Average temperature yesterday: 77 °F

Past Weeks' High & Low Weather Summary

 TemperatureHumidityPressure
High93 °F (Aug 22, 4:53 PM)97% (Aug 19, 5:53 AM)30.18 "Hg (Aug 19, 5:53 AM)
Low58 °F (Aug 26, 6:53 AM)32% (Aug 25, 1:53 PM)29.86 "Hg (Aug 24, 6:53 PM)
Average77 °F80%30.01 "Hg
* Reported Aug 18 12:53 PM — Sep 2 12:53 PM, Macon, Weather by CustomWeather, © 2015

Note: Actual official high and low records may vary slightly from our data, if they occured in-between our weather recording intervals... More about our weather records

Advertising

Macon weather history for previous 24 hours

 ConditionsComfort  
Time TempWeatherWind HumidityBarometerVisibility
12:53 PM
Wed, Sep 2
86 °FBroken clouds.5 mph61%30.06 "Hg10 mi
11:53 AM85 °FPassing clouds.3 mph68%30.09 "Hg10 mi
10:53 AM83 °FSunny.No wind72%30.09 "Hg10 mi
9:53 AM81 °FSunny.No wind74%30.09 "Hg10 mi
8:53 AM76 °FSunny.No wind88%30.09 "Hg10 mi
7:53 AM70 °FClear.No wind97%30.10 "Hg7 mi
6:53 AM69 °FFog.No wind96%30.08 "Hg6 mi
5:53 AM70 °FClear.No wind97%30.06 "Hg8 mi
4:53 AM70 °FClear.No wind97%30.06 "Hg8 mi
3:53 AM70 °FClear.No wind97%30.06 "Hg10 mi
2:53 AM71 °FClear.No wind93%30.06 "Hg9 mi
1:53 AM72 °FClear.No wind93%30.07 "Hg8 mi
12:53 AM73 °FClear.No wind94%30.08 "Hg10 mi
11:53 PM
Tue, Sep 1
73 °FClear.No wind94%30.08 "Hg10 mi
10:53 PM74 °FClear.No wind94%30.07 "Hg10 mi
9:53 PM75 °FClear.No wind94%30.06 "Hg10 mi
8:53 PM78 °FSunny.No wind82%30.05 "Hg10 mi
7:53 PM82 °FSunny.5 mph70%30.04 "Hg10 mi
6:53 PM85 °FPassing clouds.No wind63%30.05 "Hg10 mi
4:53 PM91 °FScattered clouds.3 mph49%30.05 "Hg10 mi
3:53 PM88 °FPassing clouds.5 mph55%30.06 "Hg10 mi
2:53 PM87 °FPartly sunny.7 mph57%30.07 "Hg10 mi
Weather by CustomWeather, © 2015

See weather overviewHow to use our weather pages